This is the latest recevied weather packets stored in our database for station/object KJ4EBE. If no packets are shown the sender has not sent any weather packets the latest 10 day(s).
| Time | Temp. | Humidity | Pressure | Rain* | Wind** | Luminosity | Snow |
|---|---|---|---|---|---|---|---|
| 1777763108 | 25° C | 40% | 1019.3 hPa | 0 mm | - | 218 W/m² | - |
| 1777762806 | 25° C | 40% | 1019.3 hPa | 0 mm | - | 218 W/m² | - |
| 1777762501 | 25° C | 39% | 1019.2 hPa | 0 mm | - | 317 W/m² | - |
| 1777762198 | 25° C | 39% | 1019.2 hPa | 0 mm | - | 317 W/m² | - |
| 1777761894 | 25° C | 39% | 1019.2 hPa | 0 mm | - | 317 W/m² | - |
| 1777761591 | 25° C | 39% | 1019.1 hPa | 0 mm | - | 317 W/m² | - |
| 1777761289 | 25° C | 39% | 1019.3 hPa | 0 mm | - | 317 W/m² | - |
| 1777760987 | 25° C | 39% | 1019.3 hPa | 0 mm | - | 317 W/m² | - |
| 1777760684 | 25° C | 39% | 1019.4 hPa | 0 mm | - | 328 W/m² | - |
| 1777760385 | 25° C | 39% | 1019.6 hPa | 0 mm | - | 317 W/m² | - |
| 1777760081 | 25.56° C | 39% | 1019.3 hPa | 0 mm | - | 369 W/m² | - |
| 1777759779 | 25.56° C | 39% | 1019.4 hPa | 0 mm | - | 369 W/m² | - |
| 1777759474 | 25.56° C | 40% | 1019.4 hPa | 0 mm | - | 407 W/m² | - |
| 1777759171 | 25° C | 37% | 1019.7 hPa | 0 mm | - | 416 W/m² | - |
| 1777758868 | 25.56° C | 38% | 1019.4 hPa | 0 mm | - | 429 W/m² | - |
| 1777758566 | 25.56° C | 43% | 1019.4 hPa | 0 mm | - | 444 W/m² | - |
| 1777758262 | 25° C | 42% | 1019.7 hPa | 0 mm | - | 491 W/m² | - |
| 1777757959 | 25° C | 42% | 1019.8 hPa | 0 mm | - | 491 W/m² | - |
| 1777757656 | 25.56° C | 41% | 1019.9 hPa | 0 mm | - | 536 W/m² | - |
| 1777757355 | 25.56° C | 39% | 1019.8 hPa | 0 mm | - | 545 W/m² | - |
| 1777757053 | 25.56° C | 41% | 1019.9 hPa | 0 mm | - | 556 W/m² | - |
| 1777756750 | 25° C | 37% | 1020 hPa | 0 mm | - | 555 W/m² | - |
| 1777756445 | 25° C | 39% | 1020.2 hPa | 0 mm | - | 566 W/m² | - |
| 1777756143 | 25.56° C | 37% | 1020.1 hPa | 0 mm | - | 584 W/m² | - |
| 1777755840 | 25° C | 41% | 1020.4 hPa | 0 mm | - | 595 W/m² | - |
* Rain latest hour (hover to see other rain measurements)
** Current wind speed in m/s (hover to see current wind gust speed)